Weather reports worldwide

Advertisment
Nottingham/Watnall, United Kingdom (3354): temperature & dewpoint: 15.10.2017 06:00:00 - 21.10.2017 06:00:00 (BST)Nottingham/Watnall, United Kingdom (3354): temperature -20cm & temperature -100cm: 15.10.2017 06:00:00 - 21.10.2017 06:00:00 (BST)Nottingham/Watnall, United Kingdom (3354): wind speed & gusts: 15.10.2017 06:00:00 - 21.10.2017 06:00:00 (BST)Nottingham/Watnall, United Kingdom (3354): wind direction: 15.10.2017 06:00:00 - 21.10.2017 06:00:00 (BST)Nottingham/Watnall, United Kingdom (3354): reduced air pressure: 15.10.2017 06:00:00 - 21.10.2017 06:00:00 (BST)Nottingham/Watnall, United Kingdom (3354): visibility: 15.10.2017 06:00:00 - 21.10.2017 06:00:00 (BST)Nottingham/Watnall, United Kingdom (3354): sunshine duration: 15.10.2017 06:00:00 - 21.10.2017 06:00:00 (BST)Nottingham/Watnall, United Kingdom (3354): precipitation: 15.10.2017 06:00:00 - 21.10.2017 06:00:00 (BST)
Date & Time tt [°C] td [°C] tt -20cm [°C] tt -100cm [°C] ff [km/h] ff [kn] fx [km/h] fx [kn] dd ppp [hPa] vv [km] sd [min] rr [mm]
21.10.2017 06:00:00 - - - - - - - - - - - - -
21.10.2017 05:00:00 12,8 11,5 - - 16 9 - - S 997,7 18 0 -
21.10.2017 04:00:00 12,5 11,9 - - 13 7 - - SSW 997,9 19 0 -
21.10.2017 03:00:00 12,5 12,2 - - 16 9 - - S 998,4 12 0 -
21.10.2017 02:00:00 12,0 11,4 - - 22 12 - - S 999,3 14 0 -
21.10.2017 01:00:00 11,3 10,5 - - 16 9 - - SSE 1000,3 11 - -
21.10.2017 00:00:00 10,8 9,8 - - 13 7 - - SE 1001,9 2,9 0 -
20.10.2017 23:00:00 10,6 9,2 - - 13 7 - - SSE 1003,0 9 0 -
20.10.2017 22:00:00 10,5 7,9 - - 15 8 - - S 1004,0 12 0 -
20.10.2017 21:00:00 10,4 7,0 - - 11 6 - - S 1005,1 24 0 0,0
20.10.2017 20:00:00 10,4 6,9 - - 9 5 - - S 1005,9 21 0 0,0
20.10.2017 19:00:00 10,4 7,1 - - 9 5 - - SSW 1006,2 30 0 0,0
20.10.2017 18:00:00 11,4 7,4 - - 16 9 - - SW 1006,4 40 0 0,0
20.10.2017 17:00:00 12,4 9,1 - - 13 7 - - WSW 1005,8 26 0 0,0
20.10.2017 16:00:00 12,3 10,0 - - 15 8 - - WSW 1005,5 23 0 0,0
20.10.2017 15:00:00 13,4 9,8 - - 18 10 - - W 1005,1 35 0 0,0
20.10.2017 14:00:00 13,5 10,7 - - 15 8 - - W 1004,4 45 0 0,0
20.10.2017 13:00:00 12,5 10,9 - - 24 13 - - W 1003,7 14 0 0,0
20.10.2017 12:00:00 13,3 11,2 - - 24 13 - - W 1002,7 35 0 0,0
20.10.2017 11:00:00 12,9 12,2 - - 16 9 - - W 1001,4 25 0 0,0
20.10.2017 10:00:00 12,0 11,3 13,7 14,0 13 7 - - W 1000,5 10 0 0,0
20.10.2017 09:00:00 11,6 11,0 - - 9 5 - - W 999,3 26 18 0,0
20.10.2017 08:00:00 11,0 10,9 - - 11 6 - - W 997,9 15 0 0,0
20.10.2017 07:00:00 11,1 11,0 - - 8 4 - - W 996,6 1,7 0 0,0
20.10.2017 06:00:00 11,0 10,9 - - 4 2 - - S 995,7 2,5 0 0,2
20.10.2017 05:00:00 11,1 10,7 - - 8 4 - - SSE 995,0 3,0 0 0,0
20.10.2017 04:00:00 11,5 10,3 - - 15 8 - - SSE 995,0 7 0 0,0
20.10.2017 03:00:00 12,1 9,7 - - 16 9 - - S 995,1 35 0 0,0
20.10.2017 02:00:00 12,5 10,2 - - 15 8 - - S 995,2 30 0 0,0
20.10.2017 01:00:00 13,2 11,9 - - 18 10 - - SSE 995,5 45 - 0,0
20.10.2017 00:00:00 13,7 12,3 - - 21 11 - - SSE 995,6 10 0 0,0
19.10.2017 23:00:00 13,4 12,6 - - 16 9 - - SSE 996,5 10 0 0,2
19.10.2017 22:00:00 13,1 12,5 - - 13 7 - - SSE 997,4 7 0 0,4
19.10.2017 21:00:00 12,9 12,0 - - 11 6 - - SSE 997,9 12 0 0,2
19.10.2017 20:00:00 13,3 12,2 - - 16 9 - - S 998,3 14 0 0,0
19.10.2017 19:00:00 13,0 12,3 - - 9 5 - - S 998,7 11 0 0,2
19.10.2017 18:00:00 13,6 12,7 - - 16 9 - - SSW 998,7 3,3 0 1,8
19.10.2017 17:00:00 14,6 14,6 - - 11 6 - - ESE 998,5 2,6 0 0,0
19.10.2017 16:00:00 14,3 14,3 - - 9 5 - - ESE 999,4 1,9 0 0,0
19.10.2017 15:00:00 13,8 13,8 - - 18 10 - - E 1000,3 0,3 0 0,0
19.10.2017 14:00:00 12,9 12,9 - - 15 8 - - ENE 1001,6 0,4 0 0,6
19.10.2017 13:00:00 12,5 12,5 - - 11 6 - - ENE 1003,3 1,4 0 1,4
19.10.2017 12:00:00 12,2 12,2 - - 9 5 - - E 1004,7 2,0 0 4,0
19.10.2017 11:00:00 12,0 11,9 - - 8 4 - - E 1005,4 2,4 0 0,2
19.10.2017 10:00:00 11,7 11,7 13,7 14,0 8 4 - - SE 1005,8 3,0 0 0,0
19.10.2017 09:00:00 11,3 11,3 - - 4 2 - - SSE 1006,1 3,3 0 0,0
19.10.2017 08:00:00 11,2 11,1 - - 5 3 - - SSW 1006,4 3,2 0 0,0
19.10.2017 07:00:00 11,1 11,1 - - 11 6 - - SW 1006,6 2,8 0 0,0
19.10.2017 06:00:00 11,3 11,3 - - 9 5 - - SW 1006,9 1,9 0 0,0
19.10.2017 05:00:00 11,4 11,4 - - 5 3 - - SSW 1007,3 0,2 0 0,0
19.10.2017 04:00:00 11,4 11,4 - - 5 3 - - S 1007,6 0,6 0 0,0
19.10.2017 03:00:00 11,4 11,4 - - 8 4 - - SSE 1008,1 0,5 0 0,0
19.10.2017 02:00:00 11,4 11,4 - - 8 4 - - S 1008,7 1,0 0 0,0
19.10.2017 01:00:00 11,4 11,4 - - 8 4 - - S 1009,0 0,5 - 0,0
19.10.2017 00:00:00 11,4 11,4 - - 8 4 - - SSE 1009,2 0,9 0 0,0
18.10.2017 23:00:00 11,3 11,3 - - 5 3 - - E 1009,5 0,6 0 0,4
18.10.2017 22:00:00 11,2 11,1 - - 11 6 - - E 1010,0 0,7 0 0,2
18.10.2017 21:00:00 11,0 11,0 - - 9 5 - - ESE 1010,7 0,7 0 0,0
18.10.2017 20:00:00 10,9 10,9 - - 13 7 - - E 1010,8 1,3 0 0,0
18.10.2017 19:00:00 10,7 10,6 - - 11 6 - - E 1011,1 1,2 0 0,2
18.10.2017 18:00:00 10,4 10,3 - - 15 8 - - ENE 1011,0 2,1 0 0,0
18.10.2017 17:00:00 10,6 10,4 - - 11 6 - - ENE 1011,4 2,0 0 0,0
18.10.2017 16:00:00 10,7 10,2 - - 9 5 - - E 1012,0 2,4 0 0,2
18.10.2017 15:00:00 10,8 9,7 - - 11 6 - - E 1012,1 2,6 0 0,0
18.10.2017 14:00:00 11,4 8,7 - - 9 5 - - ENE 1012,4 24 0 0,0
18.10.2017 13:00:00 11,4 8,1 - - 11 6 - - E 1013,0 22 0 0,0
18.10.2017 12:00:00 11,4 7,8 - - 11 6 - - E 1013,5 28 0 0,0
18.10.2017 11:00:00 10,4 7,8 - - 8 4 - - ENE 1014,0 17 0 0,0
18.10.2017 10:00:00 10,0 8,2 13,7 14,2 9 5 - - ENE 1014,2 16 0 0,0
18.10.2017 09:00:00 9,4 8,3 - - 2 1 - - ENE 1014,3 16 0 0,0
18.10.2017 08:00:00 9,2 8,0 - - 4 2 - - ENE 1014,1 16 0 0,0
18.10.2017 07:00:00 9,2 8,2 - - 2 1 - - NE 1014,0 15 0 0,0
18.10.2017 06:00:00 9,1 7,9 - - 0 0 - - N 1014,3 15 0 0,0
18.10.2017 05:00:00 9,4 7,9 - - 0 0 - - N 1014,5 17 0 0,0
18.10.2017 04:00:00 9,3 7,5 - - 0 0 - - N 1015,2 16 0 0,0
18.10.2017 03:00:00 9,4 7,3 - - 2 1 - - WSW 1015,8 22 0 0,0
18.10.2017 02:00:00 9,4 7,1 - - 2 1 - - SW 1016,3 14 0 0,2
18.10.2017 01:00:00 9,7 6,9 - - 4 2 - - SSW 1016,8 22 - 0,0
18.10.2017 00:00:00 9,9 6,0 - - 0 0 - - N 1017,0 26 0 0,0
17.10.2017 23:00:00 10,4 6,1 - - 4 2 - - WSW 1016,6 24 0 0,0
17.10.2017 22:00:00 10,3 6,1 - - 5 3 - - SW 1016,7 23 0 0,0
17.10.2017 21:00:00 10,6 5,8 - - 8 4 - - W 1016,4 30 0 0,0
17.10.2017 20:00:00 11,2 5,6 - - 9 5 - - WSW 1016,8 30 0 0,0
17.10.2017 19:00:00 11,6 5,5 - - 5 3 - - W 1016,6 30 0 0,0
17.10.2017 18:00:00 12,4 5,4 - - 11 6 - - WSW 1016,4 29 0 0,0
17.10.2017 17:00:00 13,3 5,3 - - 15 8 - - W 1016,6 45 6 0,0
17.10.2017 16:00:00 14,3 5,6 - - 18 10 - - W 1016,6 30 54 0,0
17.10.2017 15:00:00 14,8 5,2 - - 26 14 46 25 WSW 1016,6 45 42 0,0
17.10.2017 14:00:00 14,4 4,8 - - 22 12 46 25 W 1016,6 27 54 0,0
17.10.2017 13:00:00 14,3 6,2 - - 26 14 52 28 WSW 1016,8 22 42 0,0
17.10.2017 12:00:00 13,6 6,1 - - 29 16 52 28 WSW 1016,9 29 54 0,0
17.10.2017 11:00:00 13,2 6,7 - - 28 15 - - WSW 1016,6 28 60 0,0
17.10.2017 10:00:00 12,3 6,3 14,0 14,2 24 13 - - SW 1016,3 17 60 0,0
17.10.2017 09:00:00 11,4 6,2 - - 24 13 - - SW 1015,7 20 36 0,0
17.10.2017 08:00:00 11,2 5,7 - - 18 10 - - SW 1015,0 20 0 0,0
17.10.2017 07:00:00 11,8 5,6 - - 28 15 55 30 WSW 1014,4 20 0 0,0
17.10.2017 06:00:00 12,3 6,4 - - 16 9 - - WSW 1014,4 20 0 0,0
17.10.2017 05:00:00 12,6 6,0 - - 24 13 55 30 WSW 1013,5 16 0 0,0
17.10.2017 04:00:00 12,9 6,0 - - 28 15 54 29 SW 1013,2 16 0 0,0
17.10.2017 03:00:00 13,2 6,2 - - 31 17 57 31 SW 1013,2 16 0 0,0
17.10.2017 02:00:00 13,4 6,0 - - 35 19 67 36 SW 1012,5 20 0 0,0
17.10.2017 01:00:00 13,8 5,7 - - 37 20 74 40 SW 1012,0 17 - 0,0
17.10.2017 00:00:00 13,5 7,2 - - 29 16 65 35 SW 1011,6 13 0 0,0
16.10.2017 23:00:00 13,5 7,0 - - 35 19 65 35 SW 1011,0 14 0 0,0
16.10.2017 22:00:00 14,4 6,5 - - 28 15 63 34 SW 1010,3 16 0 0,0
16.10.2017 21:00:00 14,7 6,2 - - 34 18 68 37 SW 1009,9 19 0 0,0
16.10.2017 20:00:00 14,9 7,2 - - 26 14 59 32 SSW 1009,6 14 0 0,0
16.10.2017 19:00:00 15,1 6,4 - - 29 16 76 41 SSW 1009,4 12 0 -
16.10.2017 18:00:00 16,5 6,8 - - 42 23 76 41 SSW 1008,5 15 18 0,0
16.10.2017 17:00:00 17,6 10,2 - - 24 13 59 32 SSW 1008,4 12 60 0,0
16.10.2017 16:00:00 18,8 10,5 - - 28 15 57 31 SSW 1008,6 14 36 0,0
16.10.2017 15:00:00 18,4 12,9 - - 24 13 50 27 SSW 1009,2 12 0 0,0
16.10.2017 14:00:00 18,9 14,7 - - 18 10 - - SSW 1009,8 16 0 0,0
16.10.2017 13:00:00 19,4 15,3 - - 18 10 - - S 1009,8 16 0 0,0
16.10.2017 12:00:00 18,7 15,5 - - 16 9 - - SSE 1010,9 13 6 0,0
16.10.2017 11:00:00 17,1 16,2 - - 13 7 - - SSE 1011,5 8 0 0,0
16.10.2017 10:00:00 14,8 14,7 14,2 14,2 15 8 - - ESE 1012,0 2,9 0 0,0
16.10.2017 09:00:00 14,3 14,3 - - 15 8 - - ESE 1012,6 2,0 0 0,0
16.10.2017 08:00:00 13,7 13,7 - - 11 6 - - ESE 1013,8 1,2 0 0,2
16.10.2017 07:00:00 13,9 13,9 - - 9 5 - - SE 1014,6 1,5 0 0,0
16.10.2017 06:00:00 13,9 13,9 - - 8 4 - - S 1015,1 1,9 0 0,0
16.10.2017 05:00:00 11,8 11,5 - - 5 3 - - SSE 1015,0 1,1 0 0,0
16.10.2017 04:00:00 12,1 11,4 - - 0 0 - - N 1015,2 1,6 0 0,0
16.10.2017 03:00:00 13,3 12,6 - - 5 3 - - S 1015,4 3,9 0 0,0
16.10.2017 02:00:00 13,0 12,1 - - 8 4 - - SSE 1015,5 4,7 0 0,0
16.10.2017 01:00:00 12,4 11,5 - - 4 2 - - E 1015,6 4,8 - 0,0
16.10.2017 00:00:00 12,6 11,5 - - 5 3 - - S 1016,0 6 0 0,0
15.10.2017 23:00:00 13,0 11,5 - - 8 4 - - S 1016,2 7 0 0,0
15.10.2017 22:00:00 12,8 11,2 - - 5 3 - - SSW 1016,2 8 0 0,0
15.10.2017 21:00:00 12,9 11,0 - - 4 2 - - SSW 1016,1 9 0 0,0
15.10.2017 20:00:00 13,8 11,2 - - 9 5 - - WSW 1016,0 11 0 0,0
15.10.2017 19:00:00 14,3 11,4 - - 13 7 - - SSW 1015,6 17 0 0,0
15.10.2017 18:00:00 15,3 11,8 - - 11 6 - - SSW 1015,0 23 12 0,0
15.10.2017 17:00:00 16,7 12,0 - - 15 8 - - SSW 1014,6 26 30 0,0
15.10.2017 16:00:00 17,6 12,5 - - 15 8 - - SSW 1014,7 19 24 0,0
15.10.2017 15:00:00 17,5 12,8 - - 16 9 - - SW 1014,9 13 6 0,0
15.10.2017 14:00:00 17,0 12,8 - - 16 9 - - SW 1015,3 14 0 0,0
15.10.2017 13:00:00 16,5 13,1 - - 15 8 - - SW 1015,4 12 6 0,0
15.10.2017 12:00:00 16,6 14,3 - - 13 7 - - SSW 1015,3 8 12 0,0
15.10.2017 11:00:00 14,7 13,9 - - 13 7 - - SSW 1015,7 5 0 0,0
15.10.2017 10:00:00 14,1 13,6 14,4 14,0 16 9 - - SW 1016,2 2,5 0 0,0
15.10.2017 09:00:00 13,7 13,2 - - 13 7 - - SSW 1016,4 3,3 0 0,0
15.10.2017 08:00:00 13,4 12,9 - - 13 7 - - SSW 1016,2 3,3 0 0,0
15.10.2017 07:00:00 13,1 12,8 - - 11 6 - - SSW 1016,5 3,3 0 0,0
15.10.2017 06:00:00 12,8 12,6 - - 13 7 - - SSW 1017,0 3,0 0 0,0

tt = temperature
td = dewpoint
tt -20cm = temperature -20cm
tt -100cm = temperature -100cm
ff = wind speed
fx = gusts
dd = wind direction
ppp = reduced air pressure
vv = visibility
sd = sunshine duration
rr = precipitation

Next stations